Regional Weather Roundup
Issued by NWS Kansas City/Pleasant Hill, MO

Current Version | Previous Version | Text Only | Print | Product List | Glossary On
Versions: 1 2 3 4 5 6 7 8 9 10 11 12 13 14 15 16 17 18 19 20 21 22 23 24 25 26 27 28 29 30 31 32 33 34 35 36 37 38 39 40 41 42 43 44 45 46 47 48 49 50
000
ASUS43 KEAX 040411
RWREAX

WEATHER ROUNDUP FOR EASTERN KANSAS AND NORTHWEST MISSOURI
NATIONAL WEATHER SERVICE KANSAS CITY/PLEASANT HILL MO
1100 PM CDT FRI JUL 03 2015

KSZ040-057-103>105-MOZ028-029-037-043-040500-
...KANSAS CITY METROPOLITAN AREA...

CITY           SKY/WX    TMP DP  RH WIND       PRES   REMARKS
K.C. INTL      CLEAR     69  61  75 NE5       29.99R
K.C. DOWNTOWN  CLEAR     71  60  68 E6        29.97R
LEES SUMMIT    CLEAR     70  60  70 NE5       29.99R
OLATHE - IXD   CLEAR     70  57  63 NE5       29.99R
OLATHE - OJC   CLEAR     66  60  81 CALM      29.98R
LAWRENCE       CLEAR     63  60  90 CALM      29.98R

$$

MOZ001>008-011>017-020>025-030>033-038>040-044>046-053-054-040500-
...NORTHERN AND CENTRAL MISSOURI...

CITY           SKY/WX    TMP DP  RH WIND       PRES   REMARKS
ST. JOSEPH     CLEAR     65  61  87 CALM      29.98R
MOSBY          CLEAR     64  63  94 CALM      29.98R
HARRISONVILLE  CLEAR     66  64  94 N3        30.01R
WARRENSBURG    CLEAR     66  63  88 CALM      29.97R
WHITEMAN AFB   CLEAR     68  61  79 E2        29.96R
CLINTON        CLEAR     68  64  88 CALM      29.98R
SEDALIA        CLEAR     68  64  87 CALM      29.99R
WARSAW         FAIR      66  64  94 CALM      29.98R
CHILLICOTHE      N/A     65  63  93 CALM      29.99R
KIRKSVILLE     CLEAR     62  59  90 CALM      29.99R

$$

MOZ041-047>049-056>058-063>065-088>090-097-040500-
...EASTERN AND SOUTHERN MISSOURI...

CITY           SKY/WX    TMP DP  RH WIND       PRES   REMARKS
ST. LOUIS INTL PTCLDY    75  66  73 NE3       29.94R
SPIRIT OF STL  CLEAR     69  67  93 CALM      29.93R
COLUMBIA       FAIR      69  60  73 NE5       29.97R
JEFFERSON CITY CLEAR     72  61  68 N5        29.95R
MEXICO         CLEAR     70  66  88 CALM      29.96R
ROLLA          CLEAR     67  64  90 CALM      29.96R
LEBANON        CLEAR     64  61  88 CALM      29.98S
OSAGE BEACH    CLEAR     66  63  88 CALM      29.97R
SPRINGFIELD    CLEAR     73  67  81 NE6       29.96R
BRANSON        CLEAR     68  68 100 CALM      29.96S
JOPLIN         PTCLDY    72  69  90 NE5       29.96R FOG
WEST PLAINS    PTCLDY    69  67  93 CALM      29.97R
MALDEN         MOCLDY    73  70  88 CALM      29.92R

$$

IAZ060-094-KSZ022-034>040-054-083-096-NEZ052-066-093-040500-
...KANSAS...SOUTHEAST NEBRASKA AND IOWA...

CITY           SKY/WX    TMP DP  RH WIND       PRES   REMARKS
TOPEKA         CLEAR     65  63  93 CALM      29.98R
MANHATTAN      CLEAR     66  61  84 CALM      29.98R
EMPORIA        CLEAR     68  62  81 NE5       29.98R
CHANUTE        CLEAR     72  66  81 E5        29.97R
WICHITA        CLEAR     74  63  68 E7        29.98R
OMAHA          CLEAR     67  60  78 CALM      29.99R
LINCOLN        CLEAR     66  61  84 CALM      30.00R HAZE
FALLS CITY     CLEAR     68  61  78 N3        29.98R
LAMONI         CLEAR     67  57  70 CALM      29.99R
DES MOINES     PTCLDY    68  59  73 S6        29.97R

$$




USA.gov is the U.S. government's official web portal to all federal, state and local government web resources and services.